This demonstration page uses our WeatherBlox Daily Observations layout. Learn more.

Left ArrowRight Arrow

41.55636, -103.73856

Hourly Observations for January 30, 2015

Temp ( °F °C ) Dew Point ( °F °C ) Humidity (%) Winds ( mph kmh ) Pressure ( in mb ) Visibility ( mi km ) Precip ( " mm )
12:53 am 00:53 Clear 28 -2.2 21 -6.1 75 75 E 9 15 30.37 1028 10 16 0.00 0.00
1:53 am 01:53 Clear 28 -2.2 21 -6.1 75 75 E 8 13 30.33 1027 10 16 0.00 0.00
2:53 am 02:53 Clear 28 -2.2 21 -6.1 75 75 E 9 15 30.30 1026 10 16 0.00 0.00
3:53 am 03:53 Clear 29 -1.7 22 -5.6 75 75 E 8 13 30.29 1026 10 16 0.00 0.00
4:53 am 04:53 Clear 29 -1.7 22 -5.6 75 75 E 8 13 30.30 1026 10 16 0.00 0.00
5:53 am 05:53 Clear 28 -2.2 22 -5.6 78 78 E 7 11 30.31 1026 10 16 0.00 0.00
6:53 am 06:53 Clear 27 -2.8 23 -5 85 85 Calm 30.31 1026 10 16 0.00 0.00
7:53 am 07:53 Sunny 29 -1.7 24 -4.4 82 82 Calm 30.29 1026 10 16 0.00 0.00
8:53 am 08:53 Sunny 30 -1.1 23 -5 75 75 Calm 30.29 1026 10 16 0.00 0.00
9:53 am 09:53 Sunny 34 1.1 25 -3.9 70 70 Calm 30.28 1025 10 16 0.00 0.00
10:53 am 10:53 Sunny 38 3.3 26 -3.3 62 62 W 6 9 30.25 1024 10 16 0.00 0.00
11:53 am 11:53 Sunny 39 3.9 27 -2.8 62 62 WNW 6 9 30.22 1023 10 16 0.00 0.00
12:53 pm 12:53 Sunny 41 5 28 -2.2 60 60 WNW 6 9 30.20 1023 10 16 0.00 0.00
1:53 pm 13:53 Sunny 43 6.1 29 -1.7 58 58 NW 6 9 30.16 1022 10 16 0.00 0.00
2:53 pm 14:53 Sunny 43 6.1 28 -2.2 56 56 WNW 6 9 30.14 1021 10 16 0.00 0.00
3:53 pm 15:53 Sunny 44 6.7 30 -1.1 58 58 Calm 30.14 1021 10 16 0.00 0.00
4:53 pm 16:53 Sunny 39 3.9 31 -0.6 73 73 E 5 7 30.17 1022 10 16 0.00 0.00
5:53 pm 17:53 Clear 36 2.2 29 -1.7 76 76 NE 3 6 30.19 1022 10 16 0.00 0.00
6:53 pm 18:53 Clear 35 1.7 29 -1.7 78 78 NNE 3 6 30.19 1022 10 16 0.00 0.00
7:53 pm 19:53 Clear 33 0.6 28 -2.2 82 82 NNW 7 11 30.17 1022 10 16 0.00 0.00
8:53 pm 20:53 Clear 35 1.7 28 -2.2 76 76 N 7 11 30.14 1021 10 16 0.00 0.00
9:53 pm 21:53 Clear 36 2.2 27 -2.8 70 70 NW 6 9 30.12 1020 10 16 0.00 0.00
10:53 pm 22:53 Clear 35 1.7 27 -2.8 72 72 NW 3 6 30.10 1019 10 16 0.00 0.00
11:53 pm 23:53 Clear 35 1.7 27 -2.8 72 72 NNW 5 7 30.07 1018 10 16 0.00 0.00

Powered by AerisWeather